Regional Weather Roundup
Issued by NWS Pendleton, OR

Home | Current Version | Previous Version | Text Only | Print | Product List | Glossary On
Versions: 1 2 3 4 5 6 7 8 9 10 11 12 13 14 15 16 17 18 19 20 21 22 23 24 25 26 27 28 29 30 31 32 33 34 35 36 37 38 39 40 41 42 43 44 45 46 47 48 49 50
524
ASUS46 KPDT 302225
RWRPDT
PENDLETON REGIONAL WEATHER ROUNDUP
NATIONAL WEATHER SERVICE PENDLETON OREGON
300 PM PDT SAT JUL 30 2016

NOTE: FAIR INDICATES FEW OR NO CLOUDS BELOW 12,000 FEET WITH NO
SIGNIFICANT WEATHER AND/OR OBSTRUCTIONS TO VISIBILITY.

# INDICATES UNOFFICIAL STATION AND DATA

WAZ520-302310-
EAST SLOPES OF WASHINGTON CASCADES

CITY            SKY/WX      TMP DP  RH  WIND    PRES   REMARKS
#CLE ELUM HS    N/A         74  49  41  NW13    29.83R
#CLE ELUM 2NW   N/A         73  46  38  N1      N/A
#GLENWOOD       N/A         81  51  35  S13     29.74F
#NELSON 3SW     N/A         75  37  25  W2      29.91R
#NILE           N/A         83  35  18  W6      29.00S
#RONALD 2NW     N/A         76  N/A N/A W5      29.95S
#TEANAWAY 4NE   N/A         80  53  39  SW5     N/A
#TROUT LAKE 1NE N/A         80  49  34  W7      29.75F
$$

WAZ521-302310-
SIMCOE HIGHLANDS

CITY            SKY/WX      TMP DP  RH  WIND    PRES   REMARKS
#CENTERVILLE 1SWN/A         80  43  27  W21     29.72R
#GOLDENDALE 1NE N/A         82  24  12  SW10    N/A
#GOLDENDALE 4W  N/A         84  50  31  W9      29.87R
#GOODNOE HILLS  N/A         88  36  16  SW30    29.71S
#LYLE 6NE       N/A         77  45  32  SW20G29 29.75F
$$

WAZ026-302310-
KITTITAS VALLEY

CITY            SKY/WX      TMP DP  RH  WIND    PRES   REMARKS
ELLENSBURG AP   SUNNY       85  45  25  N25G35  29.80R
#ELLENSBURG CWU N/A         84  44  25  NW15    29.64S
#ELLENSBURG 3NE N/A         79  46  31  N14G26  29.80S
#ELLENSBURG     N/A         85  44  24  NW6     N/A
#ELLENSBURG 1E  N/A         85  N/A N/A W1      N/A
#KITTITAS 4N    N/A         82  44  26  W20     29.82F
#KITTITAS 3S    N/A         81  45  28  NW15G24 29.66S
#THORP 6N       N/A         75  46  36  W24G38  29.71R
$$

WAZ027-302310-
YAKIMA VALLEY

CITY            SKY/WX      TMP DP  RH  WIND    PRES   REMARKS
SUNNYSIDE AP    SUNNY       92  47  21  NW3     29.71F HX 88
YAKIMA AIRPORT  SUNNY       96  35  12  W9      29.72F HX 91
YAKIMA-VAGABOND N/A         93  37  14  NW10    29.72F HX 89
#DONALD 2NE     N/A         98  15   5  SW1     28.57F HX 93
#GRANDVIEW      N/A         92  42  18  NW3     29.66F HX 88
#MABTON         N/A         91  52  27  NW5     29.68F HX 88
#NACHES 2SW     N/A         88  47  24  NW7     29.78F
#TERRACE HTS    N/A         98  46  17  N3      29.60F HX 94
#TOPPENISH      N/A         92  48  22  NW5     29.57F HX 89
#WEST VALLEY    N/A         91  42  18  N7      29.63F HX 87
#W YAKIMA       N/A         92  44  19  NW3     29.65S HX 88
#WHITE SWAN 5E  N/A         94  41  16  W7      29.65F HX 90
#WILEY CITY 3W  N/A         95  27   9  CALM    29.72S HX 90
$$

WAZ028-302310-
LOWER COLUMBIA BASIN...WASHINGTON

CITY            SKY/WX      TMP DP  RH  WIND    PRES   REMARKS
HANFORD         SUNNY       98  38  13  NW12G24 29.68F HX 93
PASCO           SUNNY       97  46  18  SW14    29.68F HX 93
PROSSER AWOS    N/A         93  46  20  NW10    29.72F HX 89
RICHLAND AWOS   SUNNY       100 44  15  SW6     29.67F HX 96
#BENTON CITY    N/A         92  53  27  NW3     29.55F HX 90
#CONNELL 5N     N/A         94  50  23  SW7     29.64F HX 91
#CONNELL 5NW    N/A         91  59  34  S7      29.59F HX 90
#ELTOPIA 6NW    N/A         90  53  28  SW5     28.68F HX 88
#KAHLOTUS       N/A         90  48  24  W21G28  29.63F HX 87
#KENNEWICK 3S   N/A         93  47  21  N2      29.65F HX 89
#PATERSON       N/A         90  46  22  NW22G31 29.65F HX 87
#SAGEMOOR 2W    N/A         94  52  24  S7      29.50F HX 91
#TOUCHET 2S     N/A         93  45  19  W15     29.63F HX 89
#WEST PASCO     N/A         95  58  29  S5      29.64F HX 94
$$

WAZ029-302310-
FOOTHILLS OF THE BLUES...WASHINGTON

CITY            SKY/WX      TMP DP  RH  WIND    PRES   REMARKS
WALLA WALLA AP  SUNNY       94  25   8  SW17G24 29.74F HX 89
#CLYDE 6NW      N/A         91  44  20  SW9     29.63F HX 87
#DAYTON SCHOOL  N/A         91  31  12  SW7     29.76F HX 87
#LOWDEN 2SE     N/A         94  45  19  W7      29.66F HX 90
#PLEASANT VIEW 1N/A         93  42  17  S8      29.66F HX 89
#PRESCOTT       N/A         92  44  19  SW5     29.63F HX 88
#WHITMAN COLLEGEN/A         92  36  14  S14     29.71F HX 88
#WAITSBURG 5S   N/A         92  30  11  SW13    29.73F HX 88
#WAITSBURG 8N   N/A         92  32  12  S23     29.73S HX 88
#WALLA WALLA U  N/A         94  36  13  W6      29.67F HX 89
#WHITMAN MISSIONN/A         93  42  17  SW7     29.67F HX 89
$$

WAZ030-302310-
BLUE MOUNTAINS...WASHINGTON

CITY            SKY/WX      TMP DP  RH  WIND    PRES   REMARKS
#DIXIE 5SE      N/A         74  47  38  SW15    29.79F
$$

ORZ009-041-WAZ024-302310-
COLUMBIA RIVER GORGE

CITY            SKY/WX      TMP DP  RH  WIND    PRES   REMARKS
HOOD RIVER AP   SUNNY       77  43  30  W10G25  29.90S
THE DALLES AP   SUNNY       86  35  16  W23G33  29.80S
#ARLINGTON AIRPON/A         88  33  14  W22     29.70F
#LYLE           N/A         78  47  34  W24G40  29.82F
#MARYHILL 2W    N/A         83  36  19  W16     N/A
#MOSIER 1S      N/A         78  31  18  NW13G26 29.85S
#MURDOCK        N/A         79  46  31  W22G33  29.77F
#RUFUS DOT      N/A         88  27  11  W23     N/A
#SMITHVILLE     N/A         82  44  26  N23G32  29.75S

$$

ORZ510-302310-
NORTH CENTRAL OREGON

CITY            SKY/WX      TMP DP  RH  WIND    PRES   REMARKS
#ANTELOPE       N/A         88  38  17  NW5     29.56F
#CHENOWITH 1W   N/A         73  36  26  W37     N/A
#COW CYN RST AREN/A         84  N/A N/A W8      N/A
#DUFUR 9E       N/A         78  28  16  NW28G39 29.80F
#GRASS VALLEY 1SN/A         85  25  11  NW10    29.84F
#KENT DOT       N/A         87  37  17  N13     N/A
#MAUPIN SCHOOL  N/A         90  14   6  W16G24  29.83F HX 86
#SHANIKO 5WSW   N/A         84  33  16  N8      N/A
#SHANIKO 4NW    N/A         82  53  37  NW21G30 29.95F
#TYGH VALLEY 2NEN/A         91  27  10  N14     29.72S HX 87
#WAPANITIA AIRPON/A         85  30  14  NW17G26 29.75S
#WASCO DOT      N/A         84  42  23  W17     N/A
#WASCO 5NE      N/A         84  33  16  W22G35  29.73R
$$

ORZ511-302310-
CENTRAL OREGON

CITY            SKY/WX      TMP DP  RH  WIND    PRES   REMARKS
BEND AIRPORT    SUNNY       88  36  16  N17     29.92F
MADRAS AIRPORT  SUNNY       95  32  11  N17G25  29.90F HX 90
PRINEVILLE AP   SUNNY       90  32  13  NW16    29.90F HX 86
REDMOND AIRPORT SUNNY       92  18   7  NW20G25 29.90F HX 88
#ASHWOOD SCHOOL N/A         87  28  12  W7      29.85F
#BEND 1SW       N/A         87  41  20  NE1     N/A
#BEND-AWBREY    N/A         89  41  19  N7      29.71F
#CULVER         N/A         89  37  16  NE6     29.66S
#CULVER 8W      N/A         94  31  11  SW7     29.93R HX 89
#LAKE BILLY CHINN/A         87  N/A N/A NW12    29.90S
#MADRAS 4S      N/A         87  26  11  NW13    29.97S
#POWELL BUTTE 3EN/A         86  43  22  NW5     N/A
#POWELL BUTTE   N/A         90  45  21  NW12    29.81F HX 86
#PRINEVILLE 3N  N/A         87  50  28  NW12    29.78F
#WARM SPRINGS   N/A         91  43  19  CALM    29.80F HX 87

$$


ORZ509-302310-
EAST SLOPES OF OREGON CASCADES

CITY            SKY/WX      TMP DP  RH  WIND    PRES   REMARKS
SISTERS AWOS    N/A         84  45  26  W21G35  29.90F
#BLUE BOX PASS  N/A         72  N/A N/A SW3     N/A
#CAMP SHERMAN   N/A         88  39  18  E3      29.86R
#LA PINE DOT    N/A         88  34  15  W12     N/A
#LA PINE 4NW    N/A         84  47  28  N1      29.77F
#LAVA BUTTE DOT N/A         90  43  20  SW2     N/A    HX 86
#SISTERS AIRPOR N/A         83  50  32  N12G25  30.17S
#SISTERS ODOT   N/A         85  N/A N/A S9      N/A
#SISTERS 3N     N/A         84  42  23  SW3     29.91F
#SUNRIVER       N/A         87  28  12  W6      29.88S
#SUTTLE LK DOT  N/A         77  45  32  NW2     N/A
#TUMALO 3W      N/A         84  39  20  N12     29.60S
#WANOGA BUTTE D N/A         77  14   9  W10     N/A

$$

ORZ044-302310-
LOWER COLUMBIA BASIN...OREGON

CITY            SKY/WX      TMP DP  RH  WIND    PRES   REMARKS
HERMISTON       SUNNY       96  32  11  SW26G35 29.71F HX 91
#BOARDMAN 8SW   N/A         91  37  15  SW21    29.69F HX 87
#ECHO 8SW       N/A         93  33  12  W22     29.73F HX 89
#I-84 EX 198 DOTN/A         94  48  21  E29     N/A    HX 91
#UMATILLA       N/A         93  45  19  SW10    29.61F HX 89
$$

ORZ507-302310-
NORTHERN FOOTHILLS OF THE BLUES

CITY            SKY/WX      TMP DP  RH  WIND    PRES   REMARKS
PENDLETON AIRPT SUNNY       95  18   6  W28G38  29.76F HX 90
#ADAMS 3WNW     N/A         92  19   7  W20G33  29.66F HX 88
#ATHENA         N/A         90  24   9  W9      29.69F HX 86
#CAYUSE         N/A         92  28  10  W17G31  29.66F HX 88
#HELIX SCHOOL   N/A         90  26  10  N13G30  29.67F HX 86
#HELIX 3N       N/A         91  27  10  SW16G32 29.78S HX 87
#HOLDMAN 5SE    N/A         92  28  10  W16G26  29.77F HX 88
#HOLDMAN 6E     N/A         90  28  11  N15G24  29.49F HX 86
#M-F GROVE ELEM N/A         96  25   8  W9G24   29.72F HX 91
#M-FREEWATER 5SEN/A         93  38  15  SW15G30 29.76F HX 89
#PENDLETON DNTN N/A         97  45  17  SW2     29.77S HX 93
#PDT AQUATIC CTRN/A         96  33  11  W9      29.53F HX 91
#PDT SUNRIDGE   N/A         95  24   8  W14     29.76F HX 90
#PENDLETON 7NW  N/A         93  47  21  W25G33  31.70S HX 89
#PILOT ROCK 1S  N/A         93  35  13  W12     29.79F HX 89
#PILOT ROCK     N/A         93  29  10  N10     29.82R HX 88
#TUTUILLA       N/A         96  22   7  CALM    29.70F HX 91
#UMAPINE 2E     N/A         91  49  24  W6      29.68F HX 88
#WESTON SCHOOL  N/A         90  21   8  NE8     29.61F HX 86

$$

ORZ508-302310-
SOUTHERN FOOTHILLS OF THE BLUES

CITY            SKY/WX      TMP DP  RH  WIND    PRES   REMARKS
LEXINGTON       SUNNY       91  18   7  W23G31  29.83F HX 87
#CONDON 5W      N/A         83  25  12  NW15G25 29.88S
#HEPPNER EOC    N/A         88  25  10  W13G26  29.63S
#HEPPNER 4NE    N/A         85  17   8  W17G26  29.68F
#LEXINGTON 2SE  N/A         90  28  11  W22G30  29.78S HX 86
#OLEX 4N        N/A         86  21   9  W29G38  29.78F
#RUGGS 5NE      N/A         87  -11  2  W13     30.04S
#RUGGS 2SW      N/A         86  21   9  N15G25  29.70S

$$

ORZ502-503-302310-
BLUE MOUNTAINS

CITY            SKY/WX      TMP DP  RH  WIND    PRES   REMARKS
MEACHAM         SUNNY       86  17   8  VRB7    29.92F
#BATTLE MTN DOT N/A         89  47  24  CALM    N/A
#CUTSFORTH PARK N/A         85  30  14  E1      29.72F
#GREENHORN 9SW  N/A         89  39  17  NW3     26.10F
#HARDMAN 10S    N/A         61  34  36  N5      30.22S
#HEPPNER 15SE   N/A         82  28  14  W7      25.49F
#LADD CYN SMT   N/A         89  48  24  N9      N/A
#LADD CREEK ODOTN/A         89  51  27  NE8     N/A
#LONG CREEK HS  N/A         84  36  18  CALM    N/A
#N POWDER DOT   N/A         92  54  28  N9      N/A    HX 90
#PIKES PEAK     N/A         81  26  13  SW30G37 27.99S
#TOLLGATE       N/A         75  31  20  SW5     29.86F
#TROY SCHOOL    N/A         95  48  20  S7      29.47F HX 91
#UKIAH          N/A         88  46  23  CALM    29.60F
#WESTON 4E      N/A         85  27  12  W8      29.64S
$$

ORZ505-302310-
JOHN DAY BASIN

CITY            SKY/WX      TMP DP  RH  WIND    PRES   REMARKS
JOHN DAY        SUNNY       92  32  12  W14     29.90F HX 88
#DAYVILLE SCHOOLN/A         94  34  12  N3      29.80F HX 89
#MITCHELL       N/A         88  43  21  CALM    30.06F
#MITCHELL 8NW   N/A         89  28  11  N3      29.87F
#MONUMENT HS    N/A         92  30  11  W7      29.68S HX 88
#MT. VERNON 5SE N/A         87  35  16  W7      29.88F
#SPRAY SCHOOL   N/A         95  N/A N/A N5      N/A
$$

ORZ506-302310-
OCHOCO AND JOHN DAY HIGHLANDS

CITY            SKY/WX      TMP DP  RH  WIND    PRES   REMARKS
#BUCK CREEK DOT N/A         89  34  14  SW12    N/A
#HORSE RIDGE DO N/A         88  31  13  NW12    N/A
#KEYES SMT DOT  N/A         83  35  18  SW30G37 N/A
#PAULINA SCHOOL N/A         90  26  10  W7      N/A    HX 86
#PINE MTN OBS   N/A         77  33  20  NW3     N/A
#PRAIRIE CITY   N/A         94  37  14  W2      30.04F HX 90
#SENECA         N/A         86  N/A N/A W6      N/A
#SENECA 9NW     N/A         87  32  14  NE1     29.66F
$$

ORZ049-302310-
GRANDE RONDE VALLEY

CITY            SKY/WX      TMP DP  RH  WIND    PRES   REMARKS
LA GRANDE       SUNNY       93  37  14  NW16    29.82F HX 89
#COVE           N/A         91  50  25  NW8     29.89F HX 88
#COVE SCHOOL    N/A         90  45  21  CALM    29.88S HX 86
#COVE 6NW       N/A         90  43  20  NW7     29.71F HX 86
#ELGIN 3N       N/A         89  42  19  N1      29.82F
#ELGIN 1E       N/A         90  39  17  W7      N/A    HX 86
#IMBLER SCHOOL  N/A         86  39  19  W12     29.81F
#ISLAND CITY 4N N/A         79  53  41  CALM    29.97F
#LADD CYN DOT   N/A         92  54  28  N10     N/A    HX 90
#UNION 1S       N/A         92  46  21  NW6     29.56F HX 88
$$

ORZ050-302310-
WALLOWA COUNTY

CITY            SKY/WX      TMP DP  RH  WIND    PRES   REMARKS
JOSEPH AIRPORT  SUNNY       90  32  13  N12     N/A    HX 86
#ENTERPRISE AP  N/A         49  29  46  CALM    29.83F
#ENTERPRISE HS  N/A         87  45  23  NW8     29.88F
#IMNAHA SCHOOL  N/A         97  36  12  NE2     29.73F HX 92
#IMNAHA 10S     N/A         95  43  17  E2      29.80F HX 91
#JOSEPH 3N      N/A         84  42  23  N8      29.91F
#JOSEPH 3W      N/A         85  42  22  SE2     29.79F
#LOSTINE        N/A         90  41  18  W2      29.46S HX 86
#LOSTINE 3SE    N/A         88  35  15  N14     29.85S
#MT HOWARD 8000 N/A         67  38  34  NW1     30.22R
#PROMISE 1S     N/A         83  46  27  SE12    29.75F
#WALLOWA SCHOOL N/A         90  41  18  W2      29.81F HX 86



$$



USA.gov is the U.S. government's official web portal to all federal, state and local government web resources and services.